This is the latest recevied weather packets stored in our database for station/object IZ5MMH-14. If no packets are shown the sender has not sent any weather packets the latest 10 day(s).
| Time | Temp. | Humidity | Pressure | Rain* | Wind** | Luminosity | Snow |
|---|---|---|---|---|---|---|---|
| 1777550399 | 25.56° C | 33% | 1019.1 hPa | - | - | - | - |
| 1777549798 | 25° C | 33% | 1019.1 hPa | - | - | - | - |
| 1777549198 | 25.56° C | 33% | 1019.2 hPa | - | - | - | - |
| 1777548599 | 23.33° C | 37% | 1019.3 hPa | - | - | - | - |
| 1777547999 | 24.44° C | 36% | 1019.2 hPa | - | - | - | - |
| 1777547399 | 24.44° C | 36% | 1019.2 hPa | - | - | - | - |
| 1777546798 | 24.44° C | 35% | 1019.2 hPa | - | - | - | - |
| 1777546199 | 22.78° C | 35% | 1019.1 hPa | - | - | - | - |
| 1777545598 | 23.33° C | 39% | 1019.1 hPa | - | - | - | - |
| 1777544998 | 23.33° C | 34% | 1018.9 hPa | - | - | - | - |
| 1777544398 | 23.33° C | 33% | 1019.1 hPa | - | - | - | - |
| 1777543798 | 23.89° C | 30% | 1019.1 hPa | - | - | - | - |
| 1777543199 | 23.89° C | 34% | 1019.1 hPa | - | - | - | - |
| 1777542598 | 23.33° C | 37% | 1019.1 hPa | - | - | - | - |
| 1777541998 | 23.89° C | 38% | 1019 hPa | - | - | - | - |
| 1777541399 | 22.78° C | 39% | 1018.9 hPa | - | - | - | - |
| 1777540798 | 22.78° C | 44% | 1019 hPa | - | - | - | - |
| 1777540199 | 22.22° C | 48% | 1018.9 hPa | - | - | - | - |
| 1777539599 | 22.22° C | 54% | 1018.8 hPa | - | - | - | - |
| 1777538999 | 22.22° C | 59% | 1018.9 hPa | - | - | - | - |
| 1777538402 | 22.22° C | 57% | 1018.9 hPa | - | - | - | - |
| 1777537798 | 21.67° C | 58% | 1018.8 hPa | - | - | - | - |
| 1777537198 | 22.22° C | 58% | 1018.6 hPa | - | - | - | - |
| 1777536598 | 21.67° C | 58% | 1018.5 hPa | - | - | - | - |
| 1777535998 | 21.11° C | 60% | 1018.5 hPa | - | - | - | - |
* Rain since midnight (hover to see other rain measurements)
** Current wind speed in m/s (hover to see current wind gust speed)